Time,TemperatureF,DewpointF,PressureIn,WindDirection,WindDirectionDegrees,WindSpeedMPH,WindSpeedGustMPH,Humidity,HourlyPrecipIn,Conditions,Clouds,dailyrainin,SoftwareType,DateUTC
2013-08-02 00:12:00,67.1,63.0,30.01,WSW,242,0.0,0.0,85,0.00,,,0.00,weatherlink.com 1.10,2013-08-02 04:12:00,
2013-08-02 00:27:00,66.7,62.0,30.01,WSW,242,0.0,0.0,86,0.00,,,0.00,weatherlink.com 1.10,2013-08-02 04:27:00,
2013-08-02 00:42:00,66.3,62.0,30.01,WSW,242,0.0,0.0,86,0.00,,,0.00,weatherlink.com 1.10,2013-08-02 04:42:00,
2013-08-02 00:57:00,66.0,62.0,30.02,WSW,242,0.0,0.0,87,0.00,,,0.00,weatherlink.com 1.10,2013-08-02 04:57:00,
2013-08-02 01:12:00,65.4,62.0,30.02,WSW,242,0.0,0.0,87,0.00,,,0.00,weatherlink.com 1.10,2013-08-02 05:12:00,
2013-08-02 01:27:00,65.2,62.0,30.02,WSW,242,0.0,0.0,88,0.00,,,0.00,weatherlink.com 1.10,2013-08-02 05:27:00,
2013-08-02 01:42:00,65.2,62.0,30.02,WSW,242,0.0,0.0,89,0.00,,,0.00,weatherlink.com 1.10,2013-08-02 05:42:00,
2013-08-02 01:57:00,64.9,62.0,30.02,WSW,242,0.0,0.0,90,0.00,,,0.00,weatherlink.com 1.10,2013-08-02 05:57:00,
2013-08-02 02:12:00,64.9,62.0,30.02,WSW,242,0.0,0.0,90,0.00,,,0.00,weatherlink.com 1.10,2013-08-02 06:12:00,
2013-08-02 02:27:00,64.8,62.0,30.02,WSW,242,0.0,0.0,90,0.00,,,0.00,weatherlink.com 1.10,2013-08-02 06:27:00,
2013-08-02 02:42:00,64.6,62.0,30.01,WSW,242,0.0,0.0,91,0.00,,,0.00,weatherlink.com 1.10,2013-08-02 06:42:00,
2013-08-02 02:58:00,64.3,62.0,30.01,WSW,242,0.0,0.0,92,0.00,,,0.00,weatherlink.com 1.10,2013-08-02 06:58:00,
2013-08-02 03:13:00,64.5,62.0,30.00,WSW,242,0.0,0.0,92,0.00,,,0.00,weatherlink.com 1.10,2013-08-02 07:13:00,
2013-08-02 03:27:00,64.3,62.0,30.01,WSW,242,0.0,0.0,91,0.00,,,0.00,weatherlink.com 1.10,2013-08-02 07:27:00,
2013-08-02 03:43:00,64.0,62.0,30.01,WSW,242,0.0,0.0,92,0.00,,,0.00,weatherlink.com 1.10,2013-08-02 07:43:00,
2013-08-02 03:58:00,63.7,61.0,30.01,WSW,242,0.0,0.0,92,0.00,,,0.00,weatherlink.com 1.10,2013-08-02 07:58:00,
2013-08-02 04:13:00,63.4,61.0,30.02,North,6,0.0,1.0,93,0.00,,,0.00,weatherlink.com 1.10,2013-08-02 08:13:00,
2013-08-02 04:28:00,63.3,61.0,30.02,SW,214,0.0,1.0,93,0.00,,,0.00,weatherlink.com 1.10,2013-08-02 08:28:00,
2013-08-02 04:43:00,63.2,62.0,30.01,SW,214,0.0,0.0,94,0.00,,,0.00,weatherlink.com 1.10,2013-08-02 08:43:00,
2013-08-02 04:58:00,62.8,61.0,30.02,SW,214,0.0,0.0,94,0.00,,,0.00,weatherlink.com 1.10,2013-08-02 08:58:00,
2013-08-02 05:13:00,62.6,61.0,30.02,SW,214,0.0,0.0,94,0.00,,,0.00,weatherlink.com 1.10,2013-08-02 09:13:00,
2013-08-02 05:28:00,62.4,61.0,30.03,SW,214,0.0,0.0,95,0.00,,,0.00,weatherlink.com 1.10,2013-08-02 09:28:00,
2013-08-02 05:43:00,62.2,61.0,30.02,SW,214,0.0,0.0,95,0.00,,,0.00,weatherlink.com 1.10,2013-08-02 09:43:00,
2013-08-02 05:58:00,61.9,61.0,30.02,SW,214,0.0,0.0,95,0.00,,,0.00,weatherlink.com 1.10,2013-08-02 09:58:00,
2013-08-02 06:13:00,61.8,60.0,30.03,SW,214,0.0,0.0,95,0.00,,,0.00,weatherlink.com 1.10,2013-08-02 10:13:00,
2013-08-02 06:28:00,61.6,60.0,30.02,SW,214,0.0,0.0,95,0.00,,,0.00,weatherlink.com 1.10,2013-08-02 10:28:00,
2013-08-02 06:43:00,61.5,60.0,30.02,SW,214,0.0,0.0,96,0.00,,,0.00,weatherlink.com 1.10,2013-08-02 10:43:00,
2013-08-02 06:58:00,61.4,60.0,30.02,SW,214,0.0,0.0,95,0.00,,,0.00,weatherlink.com 1.10,2013-08-02 10:58:00,
2013-08-02 07:13:00,61.4,60.0,30.03,SW,214,0.0,0.0,96,0.00,,,0.00,weatherlink.com 1.10,2013-08-02 11:13:00,
2013-08-02 07:28:00,61.5,60.0,30.04,SW,214,0.0,0.0,96,0.00,,,0.00,weatherlink.com 1.10,2013-08-02 11:28:00,
2013-08-02 07:58:00,62.7,62.0,30.03,SW,214,0.0,0.0,96,0.00,,,0.00,weatherlink.com 1.10,2013-08-02 11:58:00,
2013-08-02 08:28:00,68.0,65.0,30.03,SW,214,0.0,0.0,89,0.00,,,0.00,weatherlink.com 1.10,2013-08-02 12:28:00,
2013-08-02 08:43:00,69.7,65.0,30.03,NNE,13,0.0,1.0,86,0.00,,,0.00,weatherlink.com 1.10,2013-08-02 12:43:00,
2013-08-02 08:58:00,71.4,65.0,30.03,West,276,0.0,2.0,79,0.00,,,0.00,weatherlink.com 1.10,2013-08-02 12:58:00,
2013-08-02 09:13:00,72.2,65.0,30.03,WNW,283,0.0,1.0,78,0.00,,,0.00,weatherlink.com 1.10,2013-08-02 13:13:00,
2013-08-02 09:28:00,73.8,66.0,30.03,West,269,0.0,2.0,76,0.00,,,0.00,weatherlink.com 1.10,2013-08-02 13:28:00,
2013-08-02 09:43:00,75.6,65.0,30.03,ESE,120,1.0,1.0,70,0.00,,,0.00,weatherlink.com 1.10,2013-08-02 13:43:00,
2013-08-02 09:58:00,77.6,64.0,30.03,South,189,0.0,2.0,64,0.00,,,0.00,weatherlink.com 1.10,2013-08-02 13:58:00,
2013-08-02 10:14:00,77.8,63.0,30.04,South,172,0.0,3.0,61,0.00,,,0.00,weatherlink.com 1.10,2013-08-02 14:14:00,
2013-08-02 10:28:00,79.2,64.0,30.03,WNW,293,1.0,3.0,59,0.00,,,0.00,weatherlink.com 1.10,2013-08-02 14:28:00,
2013-08-02 10:44:00,79.7,64.0,30.04,West,273,2.0,3.0,60,0.00,,,0.00,weatherlink.com 1.10,2013-08-02 14:44:00,
2013-08-02 10:59:00,80.3,65.0,30.04,WNW,284,2.0,4.0,60,0.00,,,0.00,weatherlink.com 1.10,2013-08-02 14:59:00,
2013-08-02 11:14:00,80.2,65.0,30.04,West,274,2.0,5.0,61,0.00,,,0.00,weatherlink.com 1.10,2013-08-02 15:14:00,
2013-08-02 11:29:00,80.1,65.0,30.04,West,276,1.0,6.0,60,0.00,,,0.00,weatherlink.com 1.10,2013-08-02 15:29:00,
2013-08-02 11:44:00,80.4,65.0,30.05,WNW,297,1.0,5.0,60,0.00,,,0.00,weatherlink.com 1.10,2013-08-02 15:44:00,
2013-08-02 11:59:00,81.5,65.0,30.05,SW,226,4.0,6.0,58,0.00,,,0.00,weatherlink.com 1.10,2013-08-02 15:59:00,
2013-08-02 12:14:00,81.3,65.0,30.06,WNW,288,1.0,8.0,57,0.00,,,0.00,weatherlink.com 1.10,2013-08-02 16:14:00,
2013-08-02 12:29:00,81.9,66.0,30.05,WNW,300,4.0,6.0,58,0.00,,,0.00,weatherlink.com 1.10,2013-08-02 16:29:00,
2013-08-02 12:45:00,82.2,65.0,30.06,WSW,242,0.0,11.0,57,0.00,,,0.00,weatherlink.com 1.10,2013-08-02 16:45:00,
2013-08-02 12:59:00,82.8,64.0,30.05,SE,130,2.0,4.0,54,0.00,,,0.00,weatherlink.com 1.10,2013-08-02 16:59:00,
2013-08-02 13:14:00,84.0,65.0,30.05,SW,227,0.0,5.0,53,0.00,,,0.00,weatherlink.com 1.10,2013-08-02 17:14:00,
2013-08-02 13:29:00,84.3,64.0,30.04,WSW,257,2.0,4.0,51,0.00,,,0.00,weatherlink.com 1.10,2013-08-02 17:29:00,
2013-08-02 13:44:00,85.2,63.0,30.05,NNW,333,1.0,5.0,48,0.00,,,0.00,weatherlink.com 1.10,2013-08-02 17:44:00,
2013-08-02 13:59:00,84.7,63.0,30.04,WSW,256,4.0,7.0,49,0.00,,,0.00,weatherlink.com 1.10,2013-08-02 17:59:00,
2013-08-02 14:14:00,85.6,65.0,30.04,WSW,238,0.0,7.0,50,0.00,,,0.00,weatherlink.com 1.10,2013-08-02 18:14:00,
2013-08-02 14:29:00,84.8,64.0,30.04,West,269,0.0,7.0,50,0.00,,,0.00,weatherlink.com 1.10,2013-08-02 18:29:00,
2013-08-02 14:44:00,85.2,63.0,30.04,SW,220,2.0,6.0,47,0.00,,,0.00,weatherlink.com 1.10,2013-08-02 18:44:00,
2013-08-02 14:59:00,85.8,64.0,30.04,West,266,1.0,7.0,49,0.00,,,0.00,weatherlink.com 1.10,2013-08-02 18:59:00,
2013-08-02 15:14:00,85.1,63.0,30.04,SW,218,5.0,7.0,48,0.00,,,0.00,weatherlink.com 1.10,2013-08-02 19:14:00,
2013-08-02 15:29:00,84.3,64.0,30.03,WSW,248,0.0,8.0,51,0.00,,,0.00,weatherlink.com 1.10,2013-08-02 19:29:00,
2013-08-02 15:44:00,84.7,65.0,30.04,SSW,192,2.0,5.0,51,0.00,,,0.00,weatherlink.com 1.10,2013-08-02 19:44:00,
2013-08-02 15:59:00,84.4,64.0,30.03,SW,218,2.0,5.0,50,0.00,,,0.00,weatherlink.com 1.10,2013-08-02 19:59:00,
2013-08-02 16:14:00,85.3,65.0,30.02,WNW,290,4.0,8.0,51,0.00,,,0.00,weatherlink.com 1.10,2013-08-02 20:14:00,
2013-08-02 16:29:00,84.9,64.0,30.02,WNW,298,2.0,8.0,50,0.00,,,0.00,weatherlink.com 1.10,2013-08-02 20:29:00,
2013-08-02 16:44:00,84.9,64.0,30.02,WSW,254,5.0,8.0,50,0.00,,,0.00,weatherlink.com 1.10,2013-08-02 20:44:00,
2013-08-02 16:59:00,84.9,64.0,30.01,SW,225,3.0,6.0,49,0.00,,,0.00,weatherlink.com 1.10,2013-08-02 20:59:00,
2013-08-02 17:14:00,85.0,65.0,30.01,SW,215,1.0,7.0,51,0.00,,,0.00,weatherlink.com 1.10,2013-08-02 21:14:00,
2013-08-02 17:59:00,85.4,63.0,30.00,WSW,250,1.0,6.0,47,0.00,,,0.00,weatherlink.com 1.10,2013-08-02 21:59:00,
2013-08-02 18:14:00,85.0,63.0,30.00,West,275,2.0,7.0,48,0.00,,,0.00,weatherlink.com 1.10,2013-08-02 22:14:00,
2013-08-02 18:29:00,83.8,64.0,30.00,West,259,0.0,6.0,51,0.00,,,0.00,weatherlink.com 1.10,2013-08-02 22:29:00,
2013-08-02 18:44:00,83.8,64.0,30.00,SW,215,1.0,6.0,52,0.00,,,0.00,weatherlink.com 1.10,2013-08-02 22:44:00,
2013-08-02 18:59:00,82.8,64.0,30.00,WNW,299,5.0,5.0,54,0.00,,,0.00,weatherlink.com 1.10,2013-08-02 22:59:00,
2013-08-02 19:44:00,81.5,66.0,29.98,SSE,148,0.0,1.0,59,0.00,,,0.00,weatherlink.com 1.10,2013-08-02 23:44:00,
2013-08-02 20:14:00,79.6,67.0,29.99,SW,232,0.0,2.0,65,0.00,,,0.00,weatherlink.com 1.10,2013-08-03 00:14:00,
2013-08-02 20:44:00,79.0,66.0,29.99,South,173,0.0,1.0,65,0.00,,,0.00,weatherlink.com 1.10,2013-08-03 00:44:00,
2013-08-02 21:14:00,78.2,65.0,30.00,SW,222,0.0,1.0,65,0.00,,,0.00,weatherlink.com 1.10,2013-08-03 01:14:00,
2013-08-02 21:29:00,77.8,66.0,30.00,SSW,200,0.0,1.0,67,0.00,,,0.00,weatherlink.com 1.10,2013-08-03 01:29:00,
2013-08-02 21:59:00,76.7,66.0,30.01,SSE,160,0.0,2.0,69,0.00,,,0.00,weatherlink.com 1.10,2013-08-03 01:59:00,
2013-08-02 22:15:00,76.6,66.0,30.02,SSE,153,0.0,1.0,70,0.00,,,0.00,weatherlink.com 1.10,2013-08-03 02:15:00,
2013-08-02 22:29:00,76.3,66.0,30.01,SSE,153,0.0,1.0,71,0.00,,,0.00,weatherlink.com 1.10,2013-08-03 02:29:00,
2013-08-02 22:45:00,76.0,66.0,30.01,SSE,153,0.0,0.0,72,0.00,,,0.00,weatherlink.com 1.10,2013-08-03 02:45:00,
2013-08-02 22:59:00,75.4,67.0,30.01,West,278,0.0,1.0,74,0.00,,,0.00,weatherlink.com 1.10,2013-08-03 02:59:00,
2013-08-02 23:14:00,75.1,66.0,30.00,West,273,0.0,0.0,74,0.00,,,0.00,weatherlink.com 1.10,2013-08-03 03:14:00,
2013-08-02 23:45:00,74.5,67.0,30.00,WSW,240,0.0,0.0,76,0.00,,,0.00,weatherlink.com 1.10,2013-08-03 03:45:00,